M I D A S
Marine Information and Data Acquisition System
Tripno 1284 of the Zeeleeuw from 2007-06-11 04:43:44 to 2007-06-11 13:47:03
Back to CruiseResearch ActivitiesStationsMapUnderway DataData graphs

EquipmentUnitsComment
TimeDGPSUTC
LatitudeDGPSDM.mWGS84
LongitudeDGPSDM.mWGS84
TemperatureSBE03/SBE38deg celciusITS90
ConductivitySBE21S/mITS90
SalinitySBE21 Practical Salinity Units
ChlorophylAChelsea fluorimeterg/lCalibrated in Aceton
Missing or incorrect values are displayed as -999
Sea surface data collected by the RV Zeeleeuw from 2007-06-11 04:46:55 to 2007-06-11 13:58:25
                                                                                    Next 1000 lines
Time Latitude Longitude Temperature Conductivity Salinity ChlorophylA
2007-06-11 04:47:04 51°13.581 2°56.13 -999 -999 -999 -999
2007-06-11 04:47:09 51°13.582 2°56.127 -999 -999 -999 -999
2007-06-11 04:47:15 51°13.583 2°56.123 -999 -999 -999 -999
2007-06-11 04:47:20 51°13.584 2°56.119 -999 -999 -999 -999
2007-06-11 04:47:26 51°13.586 2°56.113 -999 -999 -999 -999
2007-06-11 04:47:31 51°13.587 2°56.108 -999 -999 -999 -999
2007-06-11 04:47:37 51°13.589 2°56.101 -999 -999 -999 -999
2007-06-11 04:47:43 51°13.591 2°56.094 -999 -999 -999 -999
2007-06-11 04:47:48 51°13.593 2°56.087 -999 -999 -999 -999
2007-06-11 04:47:53 51°13.595 2°56.079 -999 -999 -999 -999
2007-06-11 04:47:58 51°13.598 2°56.07 -999 -999 -999 -999
2007-06-11 04:48:03 51°13.6 2°56.061 -999 -999 -999 -999
2007-06-11 04:48:08 51°13.603 2°56.051 -999 -999 -999 -999
2007-06-11 04:48:13 51°13.606 2°56.042 -999 -999 -999 -999
2007-06-11 04:48:18 51°13.609 2°56.031 -999 -999 -999 -999
2007-06-11 04:48:23 51°13.612 2°56.021 -999 -999 -999 -999
2007-06-11 04:48:29 51°13.617 2°56.008 -999 -999 -999 -999
2007-06-11 04:48:33 51°13.619 2°56 -999 -999 -999 -999
2007-06-11 04:48:38 51°13.623 2°55.989 -999 -999 -999 -999
2007-06-11 04:48:43 51°13.627 2°55.977 -999 -999 -999 -999
2007-06-11 04:48:48 51°13.631 2°55.966 -999 -999 -999 -999
2007-06-11 04:48:53 51°13.635 2°55.954 -999 -999 -999 -999
2007-06-11 04:48:58 51°13.639 2°55.942 -999 -999 -999 -999
2007-06-11 04:49:03 51°13.643 2°55.931 -999 -999 -999 -999
2007-06-11 04:49:08 51°13.647 2°55.919 -999 -999 -999 -999
2007-06-11 04:49:14 51°13.651 2°55.905 -999 -999 -999 -999
2007-06-11 04:49:18 51°13.654 2°55.896 -999 -999 -999 -999
2007-06-11 04:49:23 51°13.658 2°55.885 -999 -999 -999 -999
2007-06-11 04:49:28 51°13.661 2°55.873 -999 -999 -999 -999
2007-06-11 04:49:33 51°13.665 2°55.862 -999 -999 -999 -999
2007-06-11 04:49:39 51°13.668 2°55.849 -999 -999 -999 -999
2007-06-11 04:49:43 51°13.67 2°55.841 -999 -999 -999 -999
2007-06-11 04:49:48 51°13.673 2°55.832 -999 -999 -999 -999
2007-06-11 04:49:53 51°13.675 2°55.822 -999 -999 -999 -999
2007-06-11 04:49:58 51°13.677 2°55.813 -999 -999 -999 -999
2007-06-11 04:50:03 51°13.679 2°55.805 -999 -999 -999 -999
2007-06-11 04:50:08 51°13.68 2°55.796 -999 -999 -999 -999
2007-06-11 04:50:13 51°13.682 2°55.789 -999 -999 -999 -999
2007-06-11 04:50:18 51°13.683 2°55.782 -999 -999 -999 -999
2007-06-11 04:50:23 51°13.684 2°55.776 -999 -999 -999 -999
2007-06-11 04:50:28 51°13.684 2°55.771 -999 -999 -999 -999
2007-06-11 04:50:33 51°13.685 2°55.766 -999 -999 -999 -999
2007-06-11 04:50:37 51°13.686 2°55.761 -999 -999 -999 -999
2007-06-11 04:50:42 51°13.686 2°55.757 -999 -999 -999 -999
2007-06-11 04:50:47 51°13.686 2°55.753 -999 -999 -999 -999
2007-06-11 04:50:52 51°13.686 2°55.749 -999 -999 -999 -999
2007-06-11 04:50:57 51°13.686 2°55.745 -999 -999 -999 -999
2007-06-11 04:51:03 51°13.686 2°55.743 -999 -999 -999 -999
2007-06-11 04:51:09 51°13.687 2°55.742 -999 -999 -999 -999
2007-06-11 04:51:13 51°13.687 2°55.741 -999 -999 -999 -999
2007-06-11 04:51:18 51°13.687 2°55.741 -999 -999 -999 -999
2007-06-11 04:51:23 51°13.688 2°55.741 -999 -999 -999 -999
2007-06-11 04:51:28 51°13.688 2°55.742 -999 -999 -999 -999
2007-06-11 04:51:33 51°13.689 2°55.743 -999 -999 -999 -999
2007-06-11 04:51:38 51°13.69 2°55.744 -999 -999 -999 -999
2007-06-11 04:51:43 51°13.691 2°55.745 -999 -999 -999 -999
2007-06-11 04:51:48 51°13.693 2°55.746 -999 -999 -999 -999
2007-06-11 04:51:53 51°13.695 2°55.748 -999 -999 -999 -999
2007-06-11 04:51:58 51°13.697 2°55.749 -999 -999 -999 -999
2007-06-11 04:52:03 51°13.699 2°55.751 -999 -999 -999 -999
2007-06-11 04:52:08 51°13.701 2°55.752 -999 -999 -999 -999
2007-06-11 04:52:12 51°13.703 2°55.752 -999 -999 -999 -999
2007-06-11 04:52:17 51°13.706 2°55.753 -999 -999 -999 -999
2007-06-11 04:52:22 51°13.709 2°55.754 -999 -999 -999 -999
2007-06-11 04:52:27 51°13.712 2°55.754 -999 -999 -999 -999
2007-06-11 04:52:32 51°13.715 2°55.753 -999 -999 -999 -999
2007-06-11 04:52:37 51°13.718 2°55.752 -999 -999 -999 -999
2007-06-11 04:52:42 51°13.722 2°55.751 -999 -999 -999 -999
2007-06-11 04:52:46 51°13.725 2°55.749 -999 -999 -999 -999
2007-06-11 04:52:51 51°13.728 2°55.746 -999 -999 -999 -999
2007-06-11 04:52:56 51°13.732 2°55.743 -999 -999 -999 -999
2007-06-11 04:53:01 51°13.736 2°55.738 -999 -999 -999 -999
2007-06-11 04:53:06 51°13.741 2°55.733 -999 -999 -999 -999
2007-06-11 04:53:11 51°13.745 2°55.728 -999 -999 -999 -999
2007-06-11 04:53:15 51°13.749 2°55.723 -999 -999 -999 -999
2007-06-11 04:53:20 51°13.754 2°55.717 -999 -999 -999 -999
2007-06-11 04:53:25 51°13.76 2°55.711 -999 -999 -999 -999
2007-06-11 04:53:30 51°13.765 2°55.704 -999 -999 -999 -999
2007-06-11 04:53:35 51°13.771 2°55.698 -999 -999 -999 -999
2007-06-11 04:53:40 51°13.777 2°55.691 -999 -999 -999 -999
2007-06-11 04:53:44 51°13.782 2°55.686 -999 -999 -999 -999
2007-06-11 04:53:49 51°13.789 2°55.679 -999 -999 -999 -999
2007-06-11 04:53:55 51°13.797 2°55.672 -999 -999 -999 -999
2007-06-11 04:53:59 51°13.803 2°55.667 -999 -999 -999 -999
2007-06-11 04:54:04 51°13.81 2°55.661 -999 -999 -999 -999
2007-06-11 04:54:09 51°13.818 2°55.656 -999 -999 -999 -999
2007-06-11 04:54:15 51°13.827 2°55.649 -999 -999 -999 -999
2007-06-11 04:54:20 51°13.834 2°55.643 -999 -999 -999 -999
2007-06-11 04:54:24 51°13.841 2°55.639 -999 -999 -999 -999
2007-06-11 04:54:29 51°13.848 2°55.633 -999 -999 -999 -999
2007-06-11 04:54:34 51°13.856 2°55.628 -999 -999 -999 -999
2007-06-11 04:54:40 51°13.866 2°55.621 -999 -999 -999 -999
2007-06-11 04:54:44 51°13.872 2°55.617 -999 -999 -999 -999
2007-06-11 04:54:49 51°13.881 2°55.611 -999 -999 -999 -999
2007-06-11 04:54:55 51°13.89 2°55.605 -999 -999 -999 -999
2007-06-11 04:55:00 51°13.899 2°55.599 -999 -999 -999 -999
2007-06-11 04:55:04 51°13.905 2°55.595 -999 -999 -999 -999
2007-06-11 04:55:09 51°13.914 2°55.59 -999 -999 -999 -999
2007-06-11 04:55:14 51°13.922 2°55.584 -999 -999 -999 -999
2007-06-11 04:55:19 51°13.93 2°55.578 -999 -999 -999 -999
2007-06-11 04:55:24 51°13.939 2°55.573 -999 -999 -999 -999
2007-06-11 04:55:30 51°13.949 2°55.566 -999 -999 -999 -999
2007-06-11 04:55:35 51°13.957 2°55.56 -999 -999 -999 -999
2007-06-11 04:55:39 51°13.964 2°55.556 -999 -999 -999 -999
2007-06-11 04:55:44 51°13.973 2°55.55 -999 -999 -999 -999
2007-06-11 04:55:50 51°13.984 2°55.543 -999 -999 -999 -999
2007-06-11 04:55:55 51°13.994 2°55.536 -999 -999 -999 -999
2007-06-11 04:56:00 51°14.004 2°55.53 -999 -999 -999 -999
2007-06-11 04:56:05 51°14.014 2°55.523 -999 -999 -999 -999
2007-06-11 04:56:10 51°14.024 2°55.517 -999 -999 -999 -999
2007-06-11 04:56:15 51°14.035 2°55.51 -999 -999 -999 -999
2007-06-11 04:56:19 51°14.044 2°55.505 -999 -999 -999 -999
2007-06-11 04:56:24 51°14.055 2°55.498 -999 -999 -999 -999
2007-06-11 04:56:29 51°14.065 2°55.489 -999 -999 -999 -999
2007-06-11 04:56:35 51°14.078 2°55.479 -999 -999 -999 -999
2007-06-11 04:56:39 51°14.087 2°55.472 -999 -999 -999 -999
2007-06-11 04:56:44 51°14.097 2°55.462 -999 -999 -999 -999
2007-06-11 04:56:50 51°14.111 2°55.45 -999 -999 -999 -999
2007-06-11 04:56:55 51°14.122 2°55.44 -999 -999 -999 -999
2007-06-11 04:57:00 51°14.133 2°55.43 -999 -999 -999 -999
2007-06-11 04:57:04 51°14.143 2°55.422 -999 -999 -999 -999
2007-06-11 04:57:10 51°14.156 2°55.408 -999 -999 -999 -999
2007-06-11 04:57:15 51°14.168 2°55.397 -999 -999 -999 -999
2007-06-11 04:57:20 51°14.178 2°55.384 -999 -999 -999 -999
2007-06-11 04:57:25 51°14.189 2°55.371 -999 -999 -999 -999
2007-06-11 04:57:30 51°14.2 2°55.358 -999 -999 -999 -999
2007-06-11 04:57:35 51°14.21 2°55.344 -999 -999 -999 -999
2007-06-11 04:57:40 51°14.221 2°55.329 -999 -999 -999 -999
2007-06-11 04:57:45 51°14.231 2°55.314 -999 -999 -999 -999
2007-06-11 04:57:51 51°14.243 2°55.296 -999 -999 -999 -999
2007-06-11 04:57:56 51°14.253 2°55.279 -999 -999 -999 -999
2007-06-11 04:58:01 51°14.263 2°55.262 -999 -999 -999 -999
2007-06-11 04:58:06 51°14.273 2°55.245 -999 -999 -999 -999
2007-06-11 04:58:11 51°14.283 2°55.227 -999 -999 -999 -999
2007-06-11 04:58:16 51°14.293 2°55.209 -999 -999 -999 -999
2007-06-11 04:58:20 51°14.301 2°55.194 -999 -999 -999 -999
2007-06-11 04:58:25 51°14.31 2°55.175 -999 -999 -999 -999
2007-06-11 04:58:30 51°14.32 2°55.156 -999 -999 -999 -999
2007-06-11 04:58:35 51°14.33 2°55.136 -999 -999 -999 -999
2007-06-11 04:58:40 51°14.339 2°55.116 -999 -999 -999 -999
2007-06-11 04:58:45 51°14.349 2°55.095 -999 -999 -999 -999
2007-06-11 04:58:49 51°14.357 2°55.079 -999 -999 -999 -999
2007-06-11 04:58:55 51°14.369 2°55.054 -999 -999 -999 -999
2007-06-11 04:58:59 51°14.377 2°55.038 -999 -999 -999 -999
2007-06-11 04:59:04 51°14.387 2°55.017 -999 -999 -999 -999
2007-06-11 04:59:09 51°14.398 2°54.997 -999 -999 -999 -999
2007-06-11 04:59:14 51°14.41 2°54.977 -999 -999 -999 -999
2007-06-11 04:59:19 51°14.422 2°54.957 -999 -999 -999 -999
2007-06-11 04:59:24 51°14.434 2°54.938 -999 -999 -999 -999
2007-06-11 04:59:30 51°14.449 2°54.915 -999 -999 -999 -999
2007-06-11 04:59:34 51°14.46 2°54.899 -999 -999 -999 -999
2007-06-11 04:59:39 51°14.472 2°54.879 -999 -999 -999 -999
2007-06-11 04:59:44 51°14.485 2°54.86 -999 -999 -999 -999
2007-06-11 04:59:50 51°14.5 2°54.835 -999 -999 -999 -999
2007-06-11 04:59:54 51°14.51 2°54.82 -999 -999 -999 -999
2007-06-11 04:59:59 51°14.523 2°54.8 -999 -999 -999 -999
2007-06-11 05:00:04 51°14.536 2°54.781 -999 -999 -999 -999
2007-06-11 05:00:10 51°14.553 2°54.759 -999 -999 -999 -999
2007-06-11 05:00:15 51°14.566 2°54.741 -999 -999 -999 -999
2007-06-11 05:00:19 51°14.577 2°54.726 -999 -999 -999 -999
2007-06-11 05:00:24 51°14.591 2°54.708 -999 -999 -999 -999
2007-06-11 05:00:29 51°14.605 2°54.69 -999 -999 -999 -999
2007-06-11 05:00:35 51°14.622 2°54.669 -999 -999 -999 -999
2007-06-11 05:00:39 51°14.634 2°54.655 -999 -999 -999 -999
2007-06-11 05:00:44 51°14.648 2°54.638 -999 -999 -999 -999
2007-06-11 05:00:50 51°14.666 2°54.618 -999 -999 -999 -999
2007-06-11 05:00:55 51°14.68 2°54.601 -999 -999 -999 -999
2007-06-11 05:00:59 51°14.691 2°54.588 -999 -999 -999 -999
2007-06-11 05:01:04 51°14.706 2°54.571 -999 -999 -999 -999
2007-06-11 05:01:09 51°14.721 2°54.555 -999 -999 -999 -999
2007-06-11 05:01:15 51°14.739 2°54.534 -999 -999 -999 -999
2007-06-11 05:01:20 51°14.753 2°54.517 -999 -999 -999 -999
2007-06-11 05:01:24 51°14.764 2°54.503 -999 -999 -999 -999
2007-06-11 05:01:29 51°14.779 2°54.485 -999 -999 -999 -999
2007-06-11 05:01:34 51°14.793 2°54.467 -999 -999 -999 -999
2007-06-11 05:01:39 51°14.807 2°54.449 -999 -999 -999 -999
2007-06-11 05:01:44 51°14.821 2°54.431 -999 -999 -999 -999
2007-06-11 05:01:49 51°14.835 2°54.413 -999 -999 -999 -999
2007-06-11 05:01:54 51°14.849 2°54.395 -999 -999 -999 -999
2007-06-11 05:01:59 51°14.863 2°54.377 -999 -999 -999 -999
2007-06-11 05:02:04 51°14.877 2°54.36 -999 -999 -999 -999
2007-06-11 05:02:10 51°14.895 2°54.339 -999 -999 -999 -999
2007-06-11 05:02:14 51°14.906 2°54.326 -999 -999 -999 -999
2007-06-11 05:02:19 51°14.921 2°54.309 -999 -999 -999 -999
2007-06-11 05:02:24 51°14.935 2°54.292 -999 -999 -999 -999
2007-06-11 05:02:30 51°14.952 2°54.272 -999 -999 -999 -999
2007-06-11 05:02:35 51°14.966 2°54.254 -999 -999 -999 -999
2007-06-11 05:02:39 51°14.977 2°54.241 -999 -999 -999 -999
2007-06-11 05:02:44 51°14.991 2°54.224 -999 -999 -999 -999
2007-06-11 05:02:50 51°15.008 2°54.204 -999 -999 -999 -999
2007-06-11 05:02:55 51°15.022 2°54.187 -999 -999 -999 -999
2007-06-11 05:02:59 51°15.034 2°54.174 -999 -999 -999 -999
2007-06-11 05:03:04 51°15.049 2°54.157 -999 -999 -999 -999
2007-06-11 05:03:10 51°15.066 2°54.137 -999 -999 -999 -999
2007-06-11 05:03:15 51°15.081 2°54.121 -999 -999 -999 -999
2007-06-11 05:03:19 51°15.092 2°54.107 -999 -999 -999 -999
2007-06-11 05:03:24 51°15.107 2°54.09 -999 -999 -999 -999
2007-06-11 05:03:29 51°15.121 2°54.073 -999 -999 -999 -999
2007-06-11 05:03:35 51°15.139 2°54.053 -999 -999 -999 -999
2007-06-11 05:03:39 51°15.151 2°54.041 -999 -999 -999 -999
2007-06-11 05:03:44 51°15.166 2°54.025 -999 -999 -999 -999
2007-06-11 05:03:49 51°15.181 2°54.009 -999 -999 -999 -999
2007-06-11 05:03:55 51°15.199 2°53.991 -999 -999 -999 -999
2007-06-11 05:04:00 51°15.214 2°53.975 -999 -999 -999 -999
2007-06-11 05:04:04 51°15.226 2°53.963 -999 -999 -999 -999
2007-06-11 05:04:09 51°15.241 2°53.948 -999 -999 -999 -999
2007-06-11 05:04:14 51°15.257 2°53.932 -999 -999 -999 -999
2007-06-11 05:04:19 51°15.272 2°53.916 -999 -999 -999 -999
2007-06-11 05:04:24 51°15.287 2°53.9 -999 -999 -999 -999
2007-06-11 05:04:30 51°15.304 2°53.88 -999 -999 -999 -999
2007-06-11 05:04:34 51°15.316 2°53.867 -999 -999 -999 -999
2007-06-11 05:04:39 51°15.331 2°53.851 -999 -999 -999 -999
2007-06-11 05:04:44 51°15.345 2°53.833 -999 -999 -999 -999
2007-06-11 05:04:50 51°15.363 2°53.813 -999 -999 -999 -999
2007-06-11 05:04:54 51°15.374 2°53.799 -999 -999 -999 -999
2007-06-11 05:04:59 51°15.389 2°53.783 -999 -999 -999 -999
2007-06-11 05:05:04 51°15.404 2°53.766 -999 -999 -999 -999
2007-06-11 05:05:10 51°15.422 2°53.747 -999 -999 -999 -999
2007-06-11 05:05:15 51°15.436 2°53.73 -999 -999 -999 -999
2007-06-11 05:05:19 51°15.448 2°53.718 -999 -999 -999 -999
2007-06-11 05:05:24 51°15.463 2°53.702 -999 -999 -999 -999
2007-06-11 05:05:30 51°15.482 2°53.684 -999 -999 -999 -999
2007-06-11 05:05:35 51°15.497 2°53.67 -999 -999 -999 -999
2007-06-11 05:05:39 51°15.509 2°53.658 -999 -999 -999 -999
2007-06-11 05:05:44 51°15.525 2°53.644 -999 -999 -999 -999
2007-06-11 05:05:49 51°15.54 2°53.63 -999 -999 -999 -999
2007-06-11 05:05:55 51°15.559 2°53.613 -999 -999 -999 -999
2007-06-11 05:05:59 51°15.572 2°53.603 -999 -999 -999 -999
2007-06-11 05:06:04 51°15.588 2°53.589 -999 -999 -999 -999
2007-06-11 05:06:09 51°15.603 2°53.577 -999 -999 -999 -999
2007-06-11 05:06:14 51°15.619 2°53.564 -999 -999 -999 -999
2007-06-11 05:06:20 51°15.638 2°53.549 -999 -999 -999 -999
2007-06-11 05:06:24 51°15.651 2°53.538 -999 -999 -999 -999
2007-06-11 05:06:29 51°15.667 2°53.525 -999 -999 -999 -999
2007-06-11 05:06:34 51°15.683 2°53.512 -999 -999 -999 -999
2007-06-11 05:06:39 51°15.699 2°53.499 -999 -999 -999 -999
2007-06-11 05:06:44 51°15.714 2°53.486 -999 -999 -999 -999
2007-06-11 05:06:49 51°15.73 2°53.472 -999 -999 -999 -999
2007-06-11 05:06:55 51°15.749 2°53.455 -999 -999 -999 -999
2007-06-11 05:06:59 51°15.761 2°53.444 -999 -999 -999 -999
2007-06-11 05:07:04 51°15.777 2°53.43 -999 -999 -999 -999
2007-06-11 05:07:10 51°15.795 2°53.413 -999 -999 -999 -999
2007-06-11 05:07:15 51°15.811 2°53.399 -999 -999 -999 -999
2007-06-11 05:07:19 51°15.823 2°53.387 -999 -999 -999 -999
2007-06-11 05:07:24 51°15.839 2°53.374 -999 -999 -999 -999
2007-06-11 05:07:30 51°15.858 2°53.358 -999 -999 -999 -999
2007-06-11 05:07:35 51°15.873 2°53.344 -999 -999 -999 -999
2007-06-11 05:07:39 51°15.886 2°53.334 -999 -999 -999 -999
2007-06-11 05:07:44 51°15.902 2°53.321 -999 -999 -999 -999
2007-06-11 05:07:49 51°15.918 2°53.309 -999 -999 -999 -999
2007-06-11 05:07:55 51°15.937 2°53.294 -999 -999 -999 -999
2007-06-11 05:07:59 51°15.95 2°53.284 -999 -999 -999 -999
2007-06-11 05:08:04 51°15.965 2°53.271 -999 -999 -999 -999
2007-06-11 05:08:09 51°15.981 2°53.258 -999 -999 -999 -999
2007-06-11 05:08:14 51°15.997 2°53.244 -999 -999 -999 -999
2007-06-11 05:08:20 51°16.015 2°53.228 -999 -999 -999 -999
2007-06-11 05:08:24 51°16.028 2°53.217 -999 -999 -999 -999
2007-06-11 05:08:29 51°16.044 2°53.204 -999 -999 -999 -999
2007-06-11 05:08:35 51°16.062 2°53.188 -999 -999 -999 -999
2007-06-11 05:08:40 51°16.078 2°53.176 -999 -999 -999 -999
2007-06-11 05:08:44 51°16.091 2°53.165 -999 -999 -999 -999
2007-06-11 05:08:49 51°16.107 2°53.152 -999 -999 -999 -999
2007-06-11 05:08:54 51°16.122 2°53.139 -999 -999 -999 -999
2007-06-11 05:08:59 51°16.138 2°53.127 -999 -999 -999 -999
2007-06-11 05:09:04 51°16.154 2°53.114 -999 -999 -999 -999
2007-06-11 05:09:10 51°16.173 2°53.099 -999 -999 -999 -999
2007-06-11 05:09:14 51°16.186 2°53.088 -999 -999 -999 -999
2007-06-11 05:09:19 51°16.201 2°53.076 -999 -999 -999 -999
2007-06-11 05:09:24 51°16.217 2°53.063 -999 -999 -999 -999
2007-06-11 05:09:30 51°16.236 2°53.047 -999 -999 -999 -999
2007-06-11 05:09:35 51°16.252 2°53.035 -999 -999 -999 -999
2007-06-11 05:09:39 51°16.265 2°53.025 -999 -999 -999 -999
2007-06-11 05:09:44 51°16.281 2°53.013 -999 -999 -999 -999
2007-06-11 05:09:49 51°16.297 2°53.001 -999 -999 -999 -999
2007-06-11 05:09:55 51°16.316 2°52.988 -999 -999 -999 -999
2007-06-11 05:09:59 51°16.329 2°52.979 -999 -999 -999 -999
2007-06-11 05:10:04 51°16.346 2°52.968 -999 -999 -999 -999
2007-06-11 05:10:09 51°16.362 2°52.957 -999 -999 -999 -999
2007-06-11 05:10:15 51°16.381 2°52.944 -999 -999 -999 -999
2007-06-11 05:10:19 51°16.394 2°52.934 -999 -999 -999 -999
2007-06-11 05:10:24 51°16.41 2°52.923 -999 -999 -999 -999
2007-06-11 05:10:29 51°16.426 2°52.912 -999 -999 -999 -999
2007-06-11 05:10:34 51°16.443 2°52.901 -999 -999 -999 -999
2007-06-11 05:10:40 51°16.462 2°52.887 -999 -999 -999 -999
2007-06-11 05:10:44 51°16.475 2°52.878 -999 -999 -999 -999
2007-06-11 05:10:49 51°16.491 2°52.867 -999 -999 -999 -999
2007-06-11 05:10:54 51°16.507 2°52.855 -999 -999 -999 -999
2007-06-11 05:11:00 51°16.526 2°52.841 -999 -999 -999 -999
2007-06-11 05:11:04 51°16.539 2°52.832 -999 -999 -999 -999
2007-06-11 05:11:09 51°16.556 2°52.821 -999 -999 -999 -999
2007-06-11 05:11:14 51°16.572 2°52.81 -999 -999 -999 -999
2007-06-11 05:11:19 51°16.588 2°52.799 -999 -999 -999 -999
2007-06-11 05:11:24 51°16.604 2°52.788 -999 -999 -999 -999
2007-06-11 05:11:30 51°16.623 2°52.774 -999 -999 -999 -999
2007-06-11 05:11:35 51°16.639 2°52.763 -999 -999 -999 -999
2007-06-11 05:11:39 51°16.652 2°52.754 -999 -999 -999 -999
2007-06-11 05:11:44 51°16.668 2°52.743 -999 -999 -999 -999
2007-06-11 05:11:50 51°16.688 2°52.73 -999 -999 -999 -999
2007-06-11 05:11:55 51°16.704 2°52.719 -999 -999 -999 -999
2007-06-11 05:11:59 51°16.716 2°52.71 -999 -999 -999 -999
2007-06-11 05:12:04 51°16.733 2°52.698 -999 -999 -999 -999
2007-06-11 05:12:09 51°16.749 2°52.687 -999 -999 -999 -999
2007-06-11 05:12:15 51°16.768 2°52.674 -999 -999 -999 -999
2007-06-11 05:12:19 51°16.78 2°52.665 -999 -999 -999 -999
2007-06-11 05:12:24 51°16.796 2°52.655 -999 -999 -999 -999
2007-06-11 05:12:29 51°16.812 2°52.645 -999 -999 -999 -999
2007-06-11 05:12:35 51°16.832 2°52.633 -999 -999 -999 -999
2007-06-11 05:12:40 51°16.848 2°52.624 -999 -999 -999 -999
2007-06-11 05:12:44 51°16.861 2°52.616 -999 -999 -999 -999
2007-06-11 05:12:49 51°16.877 2°52.608 -999 -999 -999 -999
2007-06-11 05:12:55 51°16.897 2°52.598 -999 -999 -999 -999
2007-06-11 05:13:00 51°16.913 2°52.589 -999 -999 -999 -999
2007-06-11 05:13:04 51°16.927 2°52.583 -999 -999 -999 -999
2007-06-11 05:13:09 51°16.943 2°52.574 -999 -999 -999 -999
2007-06-11 05:13:14 51°16.959 2°52.565 -999 -999 -999 -999
2007-06-11 05:13:19 51°16.976 2°52.557 -999 -999 -999 -999
2007-06-11 05:13:24 51°16.992 2°52.547 -999 -999 -999 -999
2007-06-11 05:13:30 51°17.012 2°52.537 -999 -999 -999 -999
2007-06-11 05:13:34 51°17.025 2°52.529 -999 -999 -999 -999
2007-06-11 05:13:39 51°17.041 2°52.521 -999 -999 -999 -999
2007-06-11 05:13:44 51°17.057 2°52.512 -999 -999 -999 -999
2007-06-11 05:13:50 51°17.077 2°52.502 -999 -999 -999 -999
2007-06-11 05:13:55 51°17.094 2°52.494 -999 -999 -999 -999
2007-06-11 05:13:59 51°17.107 2°52.487 -999 -999 -999 -999
2007-06-11 05:14:04 51°17.123 2°52.478 -999 -999 -999 -999
2007-06-11 05:14:10 51°17.142 2°52.467 -999 -999 -999 -999
2007-06-11 05:14:15 51°17.159 2°52.458 -999 -999 -999 -999
2007-06-11 05:14:19 51°17.172 2°52.451 -999 -999 -999 -999
2007-06-11 05:14:24 51°17.188 2°52.441 -999 -999 -999 -999
2007-06-11 05:14:30 51°17.207 2°52.43 -999 -999 -999 -999
2007-06-11 05:14:35 51°17.224 2°52.42 -999 -999 -999 -999
2007-06-11 05:14:39 51°17.237 2°52.413 -999 -999 -999 -999
2007-06-11 05:14:44 51°17.253 2°52.404 -999 -999 -999 -999
2007-06-11 05:14:49 51°17.269 2°52.395 -999 -999 -999 -999
2007-06-11 05:14:55 51°17.289 2°52.383 -999 -999 -999 -999
2007-06-11 05:15:00 51°17.305 2°52.375 -999 -999 -999 -999
2007-06-11 05:15:04 51°17.318 2°52.367 -999 -999 -999 -999
2007-06-11 05:15:09 51°17.335 2°52.359 -999 -999 -999 -999
2007-06-11 05:15:14 51°17.352 2°52.351 -999 -999 -999 -999
2007-06-11 05:15:20 51°17.371 2°52.34 -999 -999 -999 -999
2007-06-11 05:15:24 51°17.384 2°52.332 -999 -999 -999 -999
2007-06-11 05:15:29 51°17.401 2°52.323 -999 -999 -999 -999
2007-06-11 05:15:34 51°17.417 2°52.313 -999 -999 -999 -999
2007-06-11 05:15:40 51°17.436 2°52.302 -999 -999 -999 -999
2007-06-11 05:15:44 51°17.45 2°52.295 -999 -999 -999 -999
2007-06-11 05:15:50 51°17.469 2°52.285 -999 -999 -999 -999
2007-06-11 05:15:55 51°17.486 2°52.276 -999 -999 -999 -999
2007-06-11 05:15:59 51°17.499 2°52.269 -999 -999 -999 -999
2007-06-11 05:16:04 51°17.515 2°52.26 -999 -999 -999 -999
2007-06-11 05:16:10 51°17.535 2°52.248 -999 -999 -999 -999
2007-06-11 05:16:15 51°17.551 2°52.239 -999 -999 -999 -999
2007-06-11 05:16:19 51°17.564 2°52.232 -999 -999 -999 -999
2007-06-11 05:16:24 51°17.58 2°52.223 -999 -999 -999 -999
2007-06-11 05:16:30 51°17.6 2°52.212 -999 -999 -999 -999
2007-06-11 05:16:35 51°17.616 2°52.203 -999 -999 -999 -999
2007-06-11 05:16:39 51°17.629 2°52.196 -999 -999 -999 -999
2007-06-11 05:16:44 51°17.645 2°52.187 -999 -999 -999 -999
2007-06-11 05:16:49 51°17.661 2°52.178 -999 -999 -999 -999
2007-06-11 05:16:55 51°17.681 2°52.168 -999 -999 -999 -999
2007-06-11 05:16:59 51°17.694 2°52.161 -999 -999 -999 -999
2007-06-11 05:17:04 51°17.71 2°52.152 -999 -999 -999 -999
2007-06-11 05:17:09 51°17.726 2°52.143 -999 -999 -999 -999
2007-06-11 05:17:15 51°17.746 2°52.133 -999 -999 -999 -999
2007-06-11 05:17:20 51°17.763 2°52.125 -999 -999 -999 -999
2007-06-11 05:17:24 51°17.776 2°52.118 -999 -999 -999 -999
2007-06-11 05:17:29 51°17.792 2°52.11 -999 -999 -999 -999
2007-06-11 05:17:35 51°17.812 2°52.1 -999 -999 -999 -999
2007-06-11 05:17:39 51°17.825 2°52.093 -999 -999 -999 -999
2007-06-11 05:17:44 51°17.841 2°52.084 -999 -999 -999 -999
2007-06-11 05:17:50 51°17.861 2°52.074 -999 -999 -999 -999
2007-06-11 05:17:54 51°17.874 2°52.066 -999 -999 -999 -999
2007-06-11 05:17:59 51°17.89 2°52.057 -999 -999 -999 -999
2007-06-11 05:18:04 51°17.907 2°52.048 -999 -999 -999 -999
2007-06-11 05:18:10 51°17.926 2°52.038 -999 -999 -999 -999
2007-06-11 05:18:15 51°17.943 2°52.029 -999 -999 -999 -999
2007-06-11 05:18:19 51°17.955 2°52.022 -999 -999 -999 -999
2007-06-11 05:18:24 51°17.972 2°52.014 -999 -999 -999 -999
2007-06-11 05:18:30 51°17.991 2°52.004 -999 -999 -999 -999
2007-06-11 05:18:35 51°18.008 2°51.995 -999 -999 -999 -999
2007-06-11 05:18:39 51°18.021 2°51.988 -999 -999 -999 -999
2007-06-11 05:18:44 51°18.038 2°51.98 -999 -999 -999 -999
2007-06-11 05:18:50 51°18.058 2°51.969 -999 -999 -999 -999
2007-06-11 05:18:55 51°18.074 2°51.96 -999 -999 -999 -999
2007-06-11 05:18:59 51°18.087 2°51.953 -999 -999 -999 -999
2007-06-11 05:19:04 51°18.104 2°51.945 -999 -999 -999 -999
2007-06-11 05:19:10 51°18.123 2°51.934 -999 -999 -999 -999
2007-06-11 05:19:15 51°18.14 2°51.926 -999 -999 -999 -999
2007-06-11 05:19:19 51°18.153 2°51.919 -999 -999 -999 -999
2007-06-11 05:19:24 51°18.169 2°51.91 -999 -999 -999 -999
2007-06-11 05:19:29 51°18.186 2°51.902 -999 -999 -999 -999
2007-06-11 05:19:35 51°18.206 2°51.891 -999 -999 -999 -999
2007-06-11 05:19:40 51°18.222 2°51.883 -999 -999 -999 -999
2007-06-11 05:19:44 51°18.236 2°51.876 -999 -999 -999 -999
2007-06-11 05:19:49 51°18.252 2°51.867 -999 -999 -999 -999
2007-06-11 05:19:55 51°18.272 2°51.857 -999 -999 -999 -999
2007-06-11 05:20:00 51°18.289 2°51.849 -999 -999 -999 -999
2007-06-11 05:20:04 51°18.302 2°51.842 -999 -999 -999 -999
2007-06-11 05:20:09 51°18.318 2°51.833 -999 -999 -999 -999
2007-06-11 05:20:14 51°18.335 2°51.824 -999 -999 -999 -999
2007-06-11 05:20:19 51°18.352 2°51.816 -999 -999 -999 -999
2007-06-11 05:20:24 51°18.368 2°51.807 -999 -999 -999 -999
2007-06-11 05:20:30 51°18.388 2°51.797 -999 -999 -999 -999
2007-06-11 05:20:34 51°18.402 2°51.79 -999 -999 -999 -999
2007-06-11 05:20:39 51°18.418 2°51.782 -999 -999 -999 -999
2007-06-11 05:20:44 51°18.435 2°51.773 -999 -999 -999 -999
2007-06-11 05:20:50 51°18.455 2°51.763 -999 -999 -999 -999
2007-06-11 05:20:55 51°18.471 2°51.754 -999 -999 -999 -999
2007-06-11 05:20:59 51°18.485 2°51.747 -999 -999 -999 -999
2007-06-11 05:21:04 51°18.501 2°51.738 -999 -999 -999 -999
2007-06-11 05:21:10 51°18.521 2°51.728 -999 -999 -999 -999
2007-06-11 05:21:15 51°18.538 2°51.719 -999 -999 -999 -999
2007-06-11 05:21:19 51°18.551 2°51.712 -999 -999 -999 -999
2007-06-11 05:21:24 51°18.568 2°51.704 -999 -999 -999 -999
2007-06-11 05:21:29 51°18.585 2°51.695 -999 -999 -999 -999
2007-06-11 05:21:35 51°18.604 2°51.685 -999 -999 -999 -999
2007-06-11 05:21:39 51°18.618 2°51.677 -999 -999 -999 -999
2007-06-11 05:21:44 51°18.635 2°51.669 -999 -999 -999 -999
2007-06-11 05:21:49 51°18.651 2°51.66 -999 -999 -999 -999
2007-06-11 05:21:54 51°18.667 2°51.651 -999 -999 -999 -999
2007-06-11 05:22:00 51°18.687 2°51.64 -999 -999 -999 -999
2007-06-11 05:22:04 51°18.701 2°51.632 -999 -999 -999 -999
2007-06-11 05:22:09 51°18.717 2°51.623 -999 -999 -999 -999
2007-06-11 05:22:14 51°18.734 2°51.614 -999 -999 -999 -999
2007-06-11 05:22:19 51°18.75 2°51.605 -999 -999 -999 -999
2007-06-11 05:22:25 51°18.77 2°51.595 -999 -999 -999 -999
2007-06-11 05:22:29 51°18.784 2°51.588 -999 -999 -999 -999
2007-06-11 05:22:34 51°18.8 2°51.579 -999 -999 -999 -999
2007-06-11 05:22:39 51°18.817 2°51.57 -999 -999 -999 -999
2007-06-11 05:22:44 51°18.833 2°51.562 -999 -999 -999 -999
2007-06-11 05:22:50 51°18.853 2°51.551 -999 -999 -999 -999
2007-06-11 05:22:55 51°18.869 2°51.542 -999 -999 -999 -999
2007-06-11 05:22:59 51°18.882 2°51.535 -999 -999 -999 -999
2007-06-11 05:23:04 51°18.899 2°51.525 -999 -999 -999 -999
2007-06-11 05:23:10 51°18.919 2°51.515 -999 -999 -999 -999
2007-06-11 05:23:15 51°18.935 2°51.506 -999 -999 -999 -999
2007-06-11 05:23:19 51°18.948 2°51.499 -999 -999 -999 -999
2007-06-11 05:23:24 51°18.965 2°51.49 -999 -999 -999 -999
2007-06-11 05:23:29 51°18.981 2°51.481 -999 -999 -999 -999
2007-06-11 05:23:35 51°19.001 2°51.47 -999 -999 -999 -999
2007-06-11 05:23:39 51°19.014 2°51.462 -999 -999 -999 -999
2007-06-11 05:23:44 51°19.03 2°51.453 -999 -999 -999 -999
2007-06-11 05:23:49 51°19.047 2°51.444 -999 -999 -999 -999
2007-06-11 05:23:55 51°19.067 2°51.434 -999 -999 -999 -999
2007-06-11 05:24:00 51°19.083 2°51.425 -999 -999 -999 -999
2007-06-11 05:24:04 51°19.097 2°51.419 -999 -999 -999 -999
2007-06-11 05:24:09 51°19.113 2°51.41 -999 -999 -999 -999
2007-06-11 05:24:15 51°19.133 2°51.399 -999 -999 -999 -999
2007-06-11 05:24:20 51°19.149 2°51.39 -999 -999 -999 -999
2007-06-11 05:24:24 51°19.163 2°51.382 -999 -999 -999 -999
2007-06-11 05:24:29 51°19.179 2°51.373 -999 -999 -999 -999
2007-06-11 05:24:34 51°19.196 2°51.364 -999 -999 -999 -999
2007-06-11 05:24:39 51°19.212 2°51.356 -999 -999 -999 -999
2007-06-11 05:24:44 51°19.229 2°51.347 -999 -999 -999 -999
2007-06-11 05:24:50 51°19.249 2°51.336 -999 -999 -999 -999
2007-06-11 05:24:54 51°19.262 2°51.329 -999 -999 -999 -999
2007-06-11 05:24:59 51°19.278 2°51.32 -999 -999 -999 -999
2007-06-11 05:25:04 51°19.295 2°51.311 -999 -999 -999 -999
2007-06-11 05:25:10 51°19.315 2°51.301 -999 -999 -999 -999
2007-06-11 05:25:15 51°19.332 2°51.292 -999 -999 -999 -999
2007-06-11 05:25:19 51°19.345 2°51.285 -999 -999 -999 -999
2007-06-11 05:25:24 51°19.362 2°51.275 -999 -999 -999 -999
2007-06-11 05:25:30 51°19.382 2°51.264 -999 -999 -999 -999
2007-06-11 05:25:35 51°19.398 2°51.255 -999 -999 -999 -999
2007-06-11 05:25:39 51°19.411 2°51.248 -999 -999 -999 -999
2007-06-11 05:25:44 51°19.428 2°51.239 -999 -999 -999 -999
2007-06-11 05:25:50 51°19.448 2°51.229 -999 -999 -999 -999
2007-06-11 05:25:55 51°19.465 2°51.222 -999 -999 -999 -999
2007-06-11 05:25:59 51°19.478 2°51.216 -999 -999 -999 -999
2007-06-11 05:26:04 51°19.495 2°51.21 -999 -999 -999 -999
2007-06-11 05:26:09 51°19.511 2°51.204 -999 -999 -999 -999
2007-06-11 05:26:15 51°19.532 2°51.197 -999 -999 -999 -999
2007-06-11 05:26:20 51°19.549 2°51.19 -999 -999 -999 -999
2007-06-11 05:26:24 51°19.562 2°51.185 -999 -999 -999 -999
2007-06-11 05:26:29 51°19.579 2°51.178 -999 -999 -999 -999
2007-06-11 05:26:34 51°19.596 2°51.171 -999 -999 -999 -999
2007-06-11 05:26:40 51°19.617 2°51.164 -999 -999 -999 -999
2007-06-11 05:26:44 51°19.63 2°51.158 -999 -999 -999 -999
2007-06-11 05:26:49 51°19.647 2°51.151 -999 -999 -999 -999
2007-06-11 05:26:54 51°19.664 2°51.144 -999 -999 -999 -999
2007-06-11 05:26:59 51°19.681 2°51.138 -999 -999 -999 -999
2007-06-11 05:27:04 51°19.698 2°51.132 -999 -999 -999 -999
2007-06-11 05:27:10 51°19.718 2°51.125 -999 -999 -999 -999
2007-06-11 05:27:15 51°19.735 2°51.118 -999 -999 -999 -999
2007-06-11 05:27:19 51°19.749 2°51.113 -999 -999 -999 -999
2007-06-11 05:27:24 51°19.765 2°51.106 -999 -999 -999 -999
2007-06-11 05:27:30 51°19.785 2°51.098 -999 -999 -999 -999
2007-06-11 05:27:35 51°19.802 2°51.092 -999 -999 -999 -999
2007-06-11 05:27:39 51°19.816 2°51.086 -999 -999 -999 -999
2007-06-11 05:27:44 51°19.833 2°51.08 -999 -999 -999 -999
2007-06-11 05:27:50 51°19.853 2°51.073 -999 -999 -999 -999
2007-06-11 05:27:55 51°19.87 2°51.067 -999 -999 -999 -999
2007-06-11 05:27:59 51°19.884 2°51.062 -999 -999 -999 -999
2007-06-11 05:28:04 51°19.901 2°51.055 -999 -999 -999 -999
2007-06-11 05:28:10 51°19.922 2°51.047 -999 -999 -999 -999
2007-06-11 05:28:15 51°19.939 2°51.039 -999 -999 -999 -999
2007-06-11 05:28:19 51°19.953 2°51.033 -999 -999 -999 -999
2007-06-11 05:28:24 51°19.969 2°51.026 -999 -999 -999 -999
2007-06-11 05:28:29 51°19.986 2°51.019 -999 -999 -999 -999
2007-06-11 05:28:35 51°20.006 2°51.011 -999 -999 -999 -999
2007-06-11 05:28:40 51°20.023 2°51.004 -999 -999 -999 -999
2007-06-11 05:28:44 51°20.037 2°51 -999 -999 -999 -999
2007-06-11 05:28:49 51°20.054 2°50.994 -999 -999 -999 -999
2007-06-11 05:28:54 51°20.071 2°50.987 -999 -999 -999 -999
2007-06-11 05:28:59 51°20.088 2°50.98 -999 -999 -999 -999
2007-06-11 05:29:04 51°20.104 2°50.973 -999 -999 -999 -999
2007-06-11 05:29:11 51°20.128 2°50.963 -999 -999 -999 -999
2007-06-11 05:29:14 51°20.139 2°50.958 -999 -999 -999 -999
2007-06-11 05:29:19 51°20.155 2°50.951 -999 -999 -999 -999
2007-06-11 05:29:24 51°20.172 2°50.943 -999 -999 -999 -999
2007-06-11 05:29:28 51°20.185 2°50.937 -999 -999 -999 -999
2007-06-11 05:29:34 51°20.205 2°50.928 -999 -999 -999 -999
2007-06-11 05:29:39 51°20.222 2°50.921 -999 -999 -999 -999
2007-06-11 05:29:44 51°20.239 2°50.915 -999 -999 -999 -999
2007-06-11 05:29:49 51°20.256 2°50.908 -999 -999 -999 -999
2007-06-11 05:29:54 51°20.272 2°50.901 -999 -999 -999 -999
2007-06-11 05:29:59 51°20.289 2°50.894 -999 -999 -999 -999
2007-06-11 05:30:04 51°20.306 2°50.887 -999 -999 -999 -999
2007-06-11 05:30:09 51°20.322 2°50.88 -999 -999 -999 -999
2007-06-11 05:30:14 51°20.339 2°50.872 -999 -999 -999 -999
2007-06-11 05:30:19 51°20.356 2°50.865 -999 -999 -999 -999
2007-06-11 05:30:24 51°20.373 2°50.857 -999 -999 -999 -999
2007-06-11 05:30:30 51°20.393 2°50.848 -999 -999 -999 -999
2007-06-11 05:30:34 51°20.406 2°50.843 -999 -999 -999 -999
2007-06-11 05:30:39 51°20.424 2°50.836 -999 -999 -999 -999
2007-06-11 05:30:44 51°20.442 2°50.829 -999 -999 -999 -999
2007-06-11 05:30:49 51°20.459 2°50.822 -999 -999 -999 -999
2007-06-11 05:30:54 51°20.476 2°50.814 -999 -999 -999 -999
2007-06-11 05:30:59 51°20.493 2°50.807 -999 -999 -999 -999
2007-06-11 05:31:04 51°20.51 2°50.799 -999 -999 -999 -999
2007-06-11 05:31:09 51°20.527 2°50.791 -999 -999 -999 -999
2007-06-11 05:31:14 51°20.544 2°50.784 -999 -999 -999 -999
2007-06-11 05:31:19 51°20.561 2°50.776 -999 -999 -999 -999
2007-06-11 05:31:24 51°20.578 2°50.769 -999 -999 -999 -999
2007-06-11 05:31:29 51°20.595 2°50.761 -999 -999 -999 -999
2007-06-11 05:31:34 51°20.613 2°50.754 -999 -999 -999 -999
2007-06-11 05:31:39 51°20.63 2°50.746 -999 -999 -999 -999
2007-06-11 05:31:44 51°20.647 2°50.739 -999 -999 -999 -999
2007-06-11 05:31:49 51°20.664 2°50.731 -999 -999 -999 -999
2007-06-11 05:31:54 51°20.681 2°50.723 -999 -999 -999 -999
2007-06-11 05:31:59 51°20.698 2°50.715 -999 -999 -999 -999
2007-06-11 05:32:04 51°20.715 2°50.708 -999 -999 -999 -999
2007-06-11 05:32:08 51°20.729 2°50.703 -999 -999 -999 -999
2007-06-11 05:32:14 51°20.749 2°50.695 -999 -999 -999 -999
2007-06-11 05:32:19 51°20.767 2°50.689 -999 -999 -999 -999
2007-06-11 05:32:24 51°20.784 2°50.684 -999 -999 -999 -999
2007-06-11 05:32:29 51°20.801 2°50.678 -999 -999 -999 -999
2007-06-11 05:32:34 51°20.819 2°50.673 -999 -999 -999 -999
2007-06-11 05:32:39 51°20.836 2°50.667 -999 -999 -999 -999
2007-06-11 05:32:44 51°20.854 2°50.662 -999 -999 -999 -999
2007-06-11 05:32:49 51°20.871 2°50.656 -999 -999 -999 -999
2007-06-11 05:32:54 51°20.889 2°50.651 -999 -999 -999 -999
2007-06-11 05:32:59 51°20.906 2°50.645 -999 -999 -999 -999
2007-06-11 05:33:04 51°20.923 2°50.64 -999 -999 -999 -999
2007-06-11 05:33:09 51°20.941 2°50.634 -999 -999 -999 -999
2007-06-11 05:33:15 51°20.962 2°50.628 -999 -999 -999 -999
2007-06-11 05:33:19 51°20.976 2°50.624 -999 -999 -999 -999
2007-06-11 05:33:24 51°20.993 2°50.618 -999 -999 -999 -999
2007-06-11 05:33:30 51°21.014 2°50.612 -999 -999 -999 -999
2007-06-11 05:33:35 51°21.031 2°50.606 -999 -999 -999 -999
2007-06-11 05:33:40 51°21.049 2°50.6 -999 -999 -999 -999
2007-06-11 05:33:45 51°21.066 2°50.594 -999 -999 -999 -999
2007-06-11 05:33:50 51°21.084 2°50.588 -999 -999 -999 -999
2007-06-11 05:33:55 51°21.101 2°50.581 -999 -999 -999 -999
2007-06-11 05:34:00 51°21.119 2°50.575 -999 -999 -999 -999
2007-06-11 05:34:05 51°21.136 2°50.566 -999 -999 -999 -999
2007-06-11 05:34:10 51°21.153 2°50.558 -999 -999 -999 -999
2007-06-11 05:34:15 51°21.17 2°50.548 -999 -999 -999 -999
2007-06-11 05:34:20 51°21.187 2°50.539 -999 -999 -999 -999
2007-06-11 05:34:25 51°21.203 2°50.526 -999 -999 -999 -999
2007-06-11 05:34:30 51°21.219 2°50.514 -999 -999 -999 -999
2007-06-11 05:34:35 51°21.235 2°50.5 -999 -999 -999 -999
2007-06-11 05:34:40 51°21.251 2°50.486 -999 -999 -999 -999
2007-06-11 05:34:45 51°21.267 2°50.471 -999 -999 -999 -999
2007-06-11 05:34:50 51°21.282 2°50.457 -999 -999 -999 -999
2007-06-11 05:34:55 51°21.298 2°50.442 -999 -999 -999 -999
2007-06-11 05:35:00 51°21.313 2°50.426 -999 -999 -999 -999
2007-06-11 05:35:05 51°21.329 2°50.411 -999 -999 -999 -999
2007-06-11 05:35:10 51°21.344 2°50.394 -999 -999 -999 -999
2007-06-11 05:35:15 51°21.359 2°50.378 -999 -999 -999 -999
2007-06-11 05:35:20 51°21.373 2°50.359 -999 -999 -999 -999
2007-06-11 05:35:25 51°21.387 2°50.341 -999 -999 -999 -999
2007-06-11 05:35:30 51°21.401 2°50.321 -999 -999 -999 -999
2007-06-11 05:35:35 51°21.414 2°50.301 -999 -999 -999 -999
2007-06-11 05:35:40 51°21.428 2°50.281 -999 -999 -999 -999
2007-06-11 05:35:45 51°21.442 2°50.261 -999 -999 -999 -999
2007-06-11 05:35:50 51°21.455 2°50.24 -999 -999 -999 -999
2007-06-11 05:35:55 51°21.469 2°50.22 -999 -999 -999 -999
2007-06-11 05:36:00 51°21.482 2°50.198 -999 -999 -999 -999
2007-06-11 05:36:05 51°21.495 2°50.177 -999 -999 -999 -999
2007-06-11 05:36:10 51°21.508 2°50.156 -999 -999 -999 -999
2007-06-11 05:36:15 51°21.521 2°50.135 -999 -999 -999 -999
2007-06-11 05:36:20 51°21.534 2°50.114 -999 -999 -999 -999
2007-06-11 05:36:25 51°21.547 2°50.092 -999 -999 -999 -999
2007-06-11 05:36:30 51°21.561 2°50.071 -999 -999 -999 -999
2007-06-11 05:36:35 51°21.574 2°50.051 -999 -999 -999 -999
2007-06-11 05:36:40 51°21.587 2°50.03 -999 -999 -999 -999
2007-06-11 05:36:45 51°21.6 2°50.01 -999 -999 -999 -999
2007-06-11 05:36:50 51°21.613 2°49.989 -999 -999 -999 -999
2007-06-11 05:36:55 51°21.626 2°49.969 -999 -999 -999 -999
2007-06-11 05:37:00 51°21.639 2°49.949 -999 -999 -999 -999
2007-06-11 05:37:05 51°21.652 2°49.928 -999 -999 -999 -999
2007-06-11 05:37:10 51°21.665 2°49.908 -999 -999 -999 -999
2007-06-11 05:37:15 51°21.677 2°49.888 -999 -999 -999 -999
2007-06-11 05:37:20 51°21.69 2°49.867 -999 -999 -999 -999
2007-06-11 05:37:25 51°21.703 2°49.847 -999 -999 -999 -999
2007-06-11 05:37:30 51°21.716 2°49.827 -999 -999 -999 -999
2007-06-11 05:37:35 51°21.729 2°49.807 -999 -999 -999 -999
2007-06-11 05:37:40 51°21.742 2°49.787 -999 -999 -999 -999
2007-06-11 05:37:45 51°21.755 2°49.767 -999 -999 -999 -999
2007-06-11 05:37:50 51°21.768 2°49.747 -999 -999 -999 -999
2007-06-11 05:37:55 51°21.781 2°49.727 -999 -999 -999 -999
2007-06-11 05:38:00 51°21.794 2°49.706 -999 -999 -999 -999
2007-06-11 05:38:05 51°21.807 2°49.686 -999 -999 -999 -999
2007-06-11 05:38:10 51°21.82 2°49.666 -999 -999 -999 -999
2007-06-11 05:38:15 51°21.833 2°49.646 -999 -999 -999 -999
2007-06-11 05:38:20 51°21.846 2°49.626 -999 -999 -999 -999
2007-06-11 05:38:25 51°21.86 2°49.606 -999 -999 -999 -999
2007-06-11 05:38:29 51°21.87 2°49.59 -999 -999 -999 -999
2007-06-11 05:38:35 51°21.886 2°49.566 -999 -999 -999 -999
2007-06-11 05:38:40 51°21.899 2°49.547 -999 -999 -999 -999
2007-06-11 05:38:45 51°21.912 2°49.527 -999 -999 -999 -999
2007-06-11 05:38:50 51°21.926 2°49.508 -999 -999 -999 -999
2007-06-11 05:38:55 51°21.939 2°49.488 -999 -999 -999 -999
2007-06-11 05:39:00 51°21.952 2°49.469 -999 -999 -999 -999
2007-06-11 05:39:05 51°21.965 2°49.449 -999 -999 -999 -999
2007-06-11 05:39:10 51°21.978 2°49.43 -999 -999 -999 -999
2007-06-11 05:39:15 51°21.991 2°49.41 -999 -999 -999 -999
2007-06-11 05:39:20 51°22.004 2°49.389 -999 -999 -999 -999
2007-06-11 05:39:25 51°22.016 2°49.369 -999 -999 -999 -999
2007-06-11 05:39:30 51°22.029 2°49.349 -999 -999 -999 -999
2007-06-11 05:39:35 51°22.042 2°49.328 -999 -999 -999 -999
2007-06-11 05:39:40 51°22.055 2°49.308 -999 -999 -999 -999
2007-06-11 05:39:45 51°22.067 2°49.287 -999 -999 -999 -999
2007-06-11 05:39:50 51°22.079 2°49.266 -999 -999 -999 -999
2007-06-11 05:39:55 51°22.092 2°49.246 -999 -999 -999 -999
2007-06-11 05:40:00 51°22.105 2°49.225 -999 -999 -999 -999
2007-06-11 05:40:05 51°22.117 2°49.205 -999 -999 -999 -999
2007-06-11 05:40:10 51°22.13 2°49.184 -999 -999 -999 -999
2007-06-11 05:40:15 51°22.143 2°49.164 -999 -999 -999 -999
2007-06-11 05:40:20 51°22.155 2°49.143 -999 -999 -999 -999
2007-06-11 05:40:25 51°22.167 2°49.122 -999 -999 -999 -999
2007-06-11 05:40:30 51°22.18 2°49.102 -999 -999 -999 -999
2007-06-11 05:40:35 51°22.193 2°49.081 -999 -999 -999 -999
2007-06-11 05:40:40 51°22.205 2°49.061 -999 -999 -999 -999
2007-06-11 05:40:45 51°22.218 2°49.04 -999 -999 -999 -999
2007-06-11 05:40:50 51°22.231 2°49.02 -999 -999 -999 -999
2007-06-11 05:40:55 51°22.243 2°48.999 -999 -999 -999 -999
2007-06-11 05:41:00 51°22.256 2°48.978 -999 -999 -999 -999
2007-06-11 05:41:05 51°22.268 2°48.957 -999 -999 -999 -999
2007-06-11 05:41:10 51°22.281 2°48.936 -999 -999 -999 -999
2007-06-11 05:41:15 51°22.293 2°48.915 -999 -999 -999 -999
2007-06-11 05:41:20 51°22.305 2°48.894 -999 -999 -999 -999
2007-06-11 05:41:25 51°22.317 2°48.873 -999 -999 -999 -999
2007-06-11 05:41:30 51°22.33 2°48.853 -999 -999 -999 -999
2007-06-11 05:41:35 51°22.342 2°48.832 -999 -999 -999 -999
2007-06-11 05:41:40 51°22.355 2°48.812 -999 -999 -999 -999
2007-06-11 05:41:45 51°22.368 2°48.792 -999 -999 -999 -999
2007-06-11 05:41:50 51°22.38 2°48.772 -999 -999 -999 -999
2007-06-11 05:41:55 51°22.393 2°48.752 -999 -999 -999 -999
2007-06-11 05:42:00 51°22.405 2°48.731 -999 -999 -999 -999
2007-06-11 05:42:05 51°22.418 2°48.711 -999 -999 -999 -999
2007-06-11 05:42:10 51°22.43 2°48.69 -999 -999 -999 -999
2007-06-11 05:42:15 51°22.443 2°48.67 -999 -999 -999 -999
2007-06-11 05:42:20 51°22.455 2°48.65 -999 -999 -999 -999
2007-06-11 05:42:25 51°22.468 2°48.629 -999 -999 -999 -999
2007-06-11 05:42:30 51°22.48 2°48.608 -999 -999 -999 -999
2007-06-11 05:42:35 51°22.492 2°48.588 -999 -999 -999 -999
2007-06-11 05:42:40 51°22.504 2°48.567 -999 -999 -999 -999
2007-06-11 05:42:45 51°22.516 2°48.546 -999 -999 -999 -999
2007-06-11 05:42:50 51°22.529 2°48.526 -999 -999 -999 -999
2007-06-11 05:42:55 51°22.541 2°48.505 -999 -999 -999 -999
2007-06-11 05:43:00 51°22.553 2°48.485 -999 -999 -999 -999
2007-06-11 05:43:05 51°22.565 2°48.464 -999 -999 -999 -999
2007-06-11 05:43:10 51°22.576 2°48.443 -999 -999 -999 -999
2007-06-11 05:43:15 51°22.588 2°48.421 -999 -999 -999 -999
2007-06-11 05:43:20 51°22.599 2°48.399 -999 -999 -999 -999
2007-06-11 05:43:25 51°22.61 2°48.377 -999 -999 -999 -999
2007-06-11 05:43:30 51°22.621 2°48.354 -999 -999 -999 -999
2007-06-11 05:43:35 51°22.631 2°48.331 -999 -999 -999 -999
2007-06-11 05:43:40 51°22.642 2°48.308 -999 -999 -999 -999
2007-06-11 05:43:45 51°22.652 2°48.285 -999 -999 -999 -999
2007-06-11 05:43:50 51°22.663 2°48.261 -999 -999 -999 -999
2007-06-11 05:43:55 51°22.673 2°48.238 -999 -999 -999 -999
2007-06-11 05:44:00 51°22.684 2°48.215 -999 -999 -999 -999
2007-06-11 05:44:05 51°22.695 2°48.192 -999 -999 -999 -999
2007-06-11 05:44:10 51°22.706 2°48.169 -999 -999 -999 -999
2007-06-11 05:44:15 51°22.716 2°48.147 -999 -999 -999 -999
2007-06-11 05:44:20 51°22.727 2°48.123 -999 -999 -999 -999
2007-06-11 05:44:25 51°22.738 2°48.1 -999 -999 -999 -999
2007-06-11 05:44:30 51°22.749 2°48.077 -999 -999 -999 -999
2007-06-11 05:44:35 51°22.759 2°48.054 -999 -999 -999 -999
2007-06-11 05:44:40 51°22.77 2°48.031 -999 -999 -999 -999
2007-06-11 05:44:45 51°22.781 2°48.008 -999 -999 -999 -999
2007-06-11 05:44:50 51°22.792 2°47.985 -999 -999 -999 -999
2007-06-11 05:44:55 51°22.803 2°47.962 -999 -999 -999 -999
2007-06-11 05:45:00 51°22.814 2°47.939 -999 -999 -999 -999
2007-06-11 05:45:05 51°22.824 2°47.916 -999 -999 -999 -999
2007-06-11 05:45:10 51°22.835 2°47.892 -999 -999 -999 -999
2007-06-11 05:45:15 51°22.845 2°47.868 -999 -999 -999 -999
2007-06-11 05:45:20 51°22.856 2°47.844 -999 -999 -999 -999
2007-06-11 05:45:25 51°22.866 2°47.82 -999 -999 -999 -999
2007-06-11 05:45:30 51°22.876 2°47.795 -999 -999 -999 -999
2007-06-11 05:45:35 51°22.886 2°47.771 -999 -999 -999 -999
2007-06-11 05:45:40 51°22.896 2°47.747 -999 -999 -999 -999
2007-06-11 05:45:45 51°22.906 2°47.722 -999 -999 -999 -999
2007-06-11 05:45:50 51°22.916 2°47.697 -999 -999 -999 -999
2007-06-11 05:45:55 51°22.926 2°47.673 -999 -999 -999 -999
2007-06-11 05:46:00 51°22.936 2°47.648 -999 -999 -999 -999
2007-06-11 05:46:05 51°22.946 2°47.623 -999 -999 -999 -999
2007-06-11 05:46:10 51°22.956 2°47.598 -999 -999 -999 -999
2007-06-11 05:46:15 51°22.966 2°47.574 -999 -999 -999 -999
2007-06-11 05:46:20 51°22.976 2°47.549 -999 -999 -999 -999
2007-06-11 05:46:25 51°22.986 2°47.525 -999 -999 -999 -999
2007-06-11 05:46:30 51°22.994 2°47.498 -999 -999 -999 -999
2007-06-11 05:46:35 51°23.002 2°47.472 -999 -999 -999 -999
2007-06-11 05:46:40 51°23.009 2°47.445 -999 -999 -999 -999
2007-06-11 05:46:45 51°23.016 2°47.418 -999 -999 -999 -999
2007-06-11 05:46:50 51°23.022 2°47.39 -999 -999 -999 -999
2007-06-11 05:46:55 51°23.028 2°47.362 -999 -999 -999 -999
2007-06-11 05:47:00 51°23.034 2°47.333 -999 -999 -999 -999
2007-06-11 05:47:05 51°23.039 2°47.305 -999 -999 -999 -999
2007-06-11 05:47:10 51°23.044 2°47.276 -999 -999 -999 -999
2007-06-11 05:47:15 51°23.05 2°47.247 -999 -999 -999 -999
2007-06-11 05:47:20 51°23.055 2°47.219 -999 -999 -999 -999
2007-06-11 05:47:25 51°23.06 2°47.19 -999 -999 -999 -999
2007-06-11 05:47:30 51°23.064 2°47.161 -999 -999 -999 -999
2007-06-11 05:47:35 51°23.07 2°47.132 -999 -999 -999 -999
2007-06-11 05:47:40 51°23.074 2°47.103 -999 -999 -999 -999
2007-06-11 05:47:45 51°23.079 2°47.074 -999 -999 -999 -999
2007-06-11 05:47:50 51°23.084 2°47.045 -999 -999 -999 -999
2007-06-11 05:47:55 51°23.089 2°47.016 -999 -999 -999 -999
2007-06-11 05:48:00 51°23.094 2°46.987 -999 -999 -999 -999
2007-06-11 05:48:05 51°23.1 2°46.958 -999 -999 -999 -999
2007-06-11 05:48:10 51°23.105 2°46.93 -999 -999 -999 -999
2007-06-11 05:48:15 51°23.11 2°46.901 -999 -999 -999 -999
2007-06-11 05:48:20 51°23.116 2°46.872 -999 -999 -999 -999
2007-06-11 05:48:25 51°23.121 2°46.844 -999 -999 -999 -999
2007-06-11 05:48:30 51°23.127 2°46.815 -999 -999 -999 -999
2007-06-11 05:48:35 51°23.132 2°46.787 -999 -999 -999 -999
2007-06-11 05:48:40 51°23.138 2°46.758 -999 -999 -999 -999
2007-06-11 05:48:45 51°23.143 2°46.73 -999 -999 -999 -999
2007-06-11 05:48:50 51°23.148 2°46.701 -999 -999 -999 -999
2007-06-11 05:48:55 51°23.154 2°46.673 -999 -999 -999 -999
2007-06-11 05:49:00 51°23.158 2°46.644 -999 -999 -999 -999
2007-06-11 05:49:05 51°23.164 2°46.616 -999 -999 -999 -999
2007-06-11 05:49:09 51°23.168 2°46.593 -999 -999 -999 -999
2007-06-11 05:49:15 51°23.174 2°46.559 -999 -999 -999 -999
2007-06-11 05:49:20 51°23.18 2°46.53 -999 -999 -999 -999
2007-06-11 05:49:25 51°23.185 2°46.502 -999 -999 -999 -999
2007-06-11 05:49:30 51°23.191 2°46.474 -999 -999 -999 -999
2007-06-11 05:49:35 51°23.196 2°46.445 -999 -999 -999 -999
2007-06-11 05:49:40 51°23.202 2°46.417 -999 -999 -999 -999
2007-06-11 05:49:45 51°23.208 2°46.389 -999 -999 -999 -999
2007-06-11 05:49:50 51°23.214 2°46.361 -999 -999 -999 -999
2007-06-11 05:49:55 51°23.22 2°46.333 -999 -999 -999 -999
2007-06-11 05:50:00 51°23.225 2°46.305 -999 -999 -999 -999
2007-06-11 05:50:05 51°23.23 2°46.277 -999 -999 -999 -999
2007-06-11 05:50:10 51°23.234 2°46.248 -999 -999 -999 -999
2007-06-11 05:50:15 51°23.237 2°46.219 -999 -999 -999 -999
2007-06-11 05:50:20 51°23.24 2°46.19 -999 -999 -999 -999
2007-06-11 05:50:25 51°23.242 2°46.16 -999 -999 -999 -999
2007-06-11 05:50:30 51°23.244 2°46.13 -999 -999 -999 -999
2007-06-11 05:50:35 51°23.245 2°46.101 -999 -999 -999 -999
2007-06-11 05:50:40 51°23.247 2°46.071 -999 -999 -999 -999
2007-06-11 05:50:45 51°23.248 2°46.041 -999 -999 -999 -999
2007-06-11 05:50:50 51°23.249 2°46.011 -999 -999 -999 -999
2007-06-11 05:50:55 51°23.25 2°45.981 -999 -999 -999 -999
2007-06-11 05:51:00 51°23.251 2°45.95 -999 -999 -999 -999
2007-06-11 05:51:05 51°23.253 2°45.92 -999 -999 -999 -999
2007-06-11 05:51:10 51°23.254 2°45.89 -999 -999 -999 -999
2007-06-11 05:51:15 51°23.255 2°45.86 -999 -999 -999 -999
2007-06-11 05:51:20 51°23.256 2°45.83 -999 -999 -999 -999
2007-06-11 05:51:25 51°23.258 2°45.8 -999 -999 -999 -999
2007-06-11 05:51:30 51°23.259 2°45.769 -999 -999 -999 -999
2007-06-11 05:51:35 51°23.26 2°45.739 -999 -999 -999 -999
2007-06-11 05:51:40 51°23.261 2°45.709 -999 -999 -999 -999
2007-06-11 05:51:45 51°23.262 2°45.678 -999 -999 -999 -999
2007-06-11 05:51:50 51°23.264 2°45.648 -999 -999 -999 -999
2007-06-11 05:51:55 51°23.265 2°45.618 -999 -999 -999 -999
2007-06-11 05:52:00 51°23.266 2°45.587 -999 -999 -999 -999
2007-06-11 05:52:05 51°23.268 2°45.557 -999 -999 -999 -999
2007-06-11 05:52:10 51°23.271 2°45.527 -999 -999 -999 -999
2007-06-11 05:52:15 51°23.274 2°45.497 -999 -999 -999 -999
2007-06-11 05:52:20 51°23.277 2°45.467 -999 -999 -999 -999
2007-06-11 05:52:25 51°23.281 2°45.437 -999 -999 -999 -999
2007-06-11 05:52:30 51°23.285 2°45.408 -999 -999 -999 -999
2007-06-11 05:52:35 51°23.289 2°45.378 -999 -999 -999 -999
2007-06-11 05:52:40 51°23.293 2°45.349 -999 -999 -999 -999
2007-06-11 05:52:45 51°23.298 2°45.319 -999 -999 -999 -999
2007-06-11 05:52:50 51°23.302 2°45.29 -999 -999 -999 -999
2007-06-11 05:52:55 51°23.306 2°45.26 -999 -999 -999 -999
2007-06-11 05:53:00 51°23.311 2°45.231 -999 -999 -999 -999
2007-06-11 05:53:05 51°23.315 2°45.201 -999 -999 -999 -999
2007-06-11 05:53:10 51°23.32 2°45.172 -999 -999 -999 -999
2007-06-11 05:53:15 51°23.324 2°45.142 -999 -999 -999 -999
2007-06-11 05:53:20 51°23.329 2°45.113 -999 -999 -999 -999
2007-06-11 05:53:25 51°23.333 2°45.084 -999 -999 -999 -999
2007-06-11 05:53:30 51°23.337 2°45.054 -999 -999 -999 -999
2007-06-11 05:53:35 51°23.342 2°45.025 -999 -999 -999 -999
2007-06-11 05:53:40 51°23.346 2°44.995 -999 -999 -999 -999
2007-06-11 05:53:45 51°23.35 2°44.966 -999 -999 -999 -999
2007-06-11 05:53:50 51°23.354 2°44.936 -999 -999 -999 -999
2007-06-11 05:53:55 51°23.359 2°44.907 -999 -999 -999 -999
2007-06-11 05:54:00 51°23.363 2°44.877 -999 -999 -999 -999
2007-06-11 05:54:05 51°23.367 2°44.848 -999 -999 -999 -999
2007-06-11 05:54:10 51°23.372 2°44.818 -999 -999 -999 -999
2007-06-11 05:54:15 51°23.376 2°44.789 -999 -999 -999 -999
2007-06-11 05:54:20 51°23.381 2°44.759 -999 -999 -999 -999
2007-06-11 05:54:25 51°23.386 2°44.73 -999 -999 -999 -999
2007-06-11 05:54:30 51°23.39 2°44.7 -999 -999 -999 -999
2007-06-11 05:54:35 51°23.394 2°44.67 -999 -999 -999 -999
2007-06-11 05:54:40 51°23.399 2°44.641 -999 -999 -999 -999
2007-06-11 05:54:45 51°23.403 2°44.611 -999 -999 -999 -999
2007-06-11 05:54:50 51°23.408 2°44.582 -999 -999 -999 -999
2007-06-11 05:54:55 51°23.412 2°44.552 -999 -999 -999 -999
2007-06-11 05:55:00 51°23.417 2°44.522 -999 -999 -999 -999
2007-06-11 05:55:05 51°23.421 2°44.492 -999 -999 -999 -999
2007-06-11 05:55:10 51°23.426 2°44.463 -999 -999 -999 -999
2007-06-11 05:55:15 51°23.43 2°44.433 -999 -999 -999 -999
2007-06-11 05:55:20 51°23.435 2°44.403 -999 -999 -999 -999
2007-06-11 05:55:25 51°23.439 2°44.373 -999 -999 -999 -999
2007-06-11 05:55:30 51°23.444 2°44.344 -999 -999 -999 -999
2007-06-11 05:55:35 51°23.448 2°44.314 -999 -999 -999 -999
2007-06-11 05:55:40 51°23.453 2°44.286 -999 -999 -999 -999
2007-06-11 05:55:45 51°23.459 2°44.258 -999 -999 -999 -999
2007-06-11 05:55:50 51°23.467 2°44.233 -999 -999 -999 -999
2007-06-11 05:55:55 51°23.476 2°44.21 -999 -999 -999 -999
2007-06-11 05:56:00 51°23.487 2°44.188 -999 -999 -999 -999
2007-06-11 05:56:05 51°23.497 2°44.166 -999 -999 -999 -999
2007-06-11 05:56:10 51°23.508 2°44.144 -999 -999 -999 -999
2007-06-11 05:56:15 51°23.519 2°44.122 -999 -999 -999 -999
2007-06-11 05:56:20 51°23.529 2°44.101 -999 -999 -999 -999
2007-06-11 05:56:25 51°23.538 2°44.079 -999 -999 -999 -999
2007-06-11 05:56:30 51°23.548 2°44.058 -999 -999 -999 -999
2007-06-11 05:56:35 51°23.556 2°44.036 -999 -999 -999 -999
2007-06-11 05:56:40 51°23.567 2°44.017 -999 -999 -999 -999
2007-06-11 05:56:45 51°23.577 2°44 -999 -999 -999 -999
2007-06-11 05:56:50 51°23.589 2°43.985 -999 -999 -999 -999
2007-06-11 05:56:55 51°23.6 2°43.973 -999 -999 -999 -999
2007-06-11 05:57:00 51°23.611 2°43.964 -999 -999 -999 -999
2007-06-11 05:57:05 51°23.621 2°43.957 -999 -999 -999 -999
2007-06-11 05:57:10 51°23.631 2°43.952 -999 -999 -999 -999
2007-06-11 05:57:15 51°23.64 2°43.949 -999 -999 -999 -999
2007-06-11 05:57:20 51°23.649 2°43.947 -999 -999 -999 -999
2007-06-11 05:57:25 51°23.658 2°43.946 -999 -999 -999 -999
2007-06-11 05:57:30 51°23.666 2°43.946 -999 -999 -999 -999
2007-06-11 05:57:35 51°23.674 2°43.947 -999 -999 -999 -999
2007-06-11 05:57:40 51°23.682 2°43.949 -999 -999 -999 -999
2007-06-11 05:57:45 51°23.69 2°43.953 -999 -999 -999 -999
2007-06-11 05:57:50 51°23.697 2°43.958 -999 -999 -999 -999
2007-06-11 05:57:55 51°23.705 2°43.964 -999 -999 -999 -999
2007-06-11 05:58:00 51°23.711 2°43.971 -999 -999 -999 -999
2007-06-11 05:58:05 51°23.717 2°43.98 -999 -999 -999 -999
2007-06-11 05:58:10 51°23.723 2°43.99 -999 -999 -999 -999
2007-06-11 05:58:15 51°23.727 2°44 -999 -999 -999 -999
2007-06-11 05:58:20 51°23.732 2°44.011 -999 -999 -999 -999
2007-06-11 05:58:25 51°23.737 2°44.022 -999 -999 -999 -999
2007-06-11 05:58:30 51°23.742 2°44.034 -999 -999 -999 -999
2007-06-11 05:58:35 51°23.747 2°44.044 -999 -999 -999 -999
2007-06-11 05:58:40 51°23.753 2°44.054 -999 -999 -999 -999
2007-06-11 05:58:45 51°23.759 2°44.063 -999 -999 -999 -999
2007-06-11 05:58:50 51°23.764 2°44.072 -999 -999 -999 -999
2007-06-11 05:58:55 51°23.77 2°44.08 -999 -999 -999 -999
2007-06-11 05:59:00 51°23.775 2°44.088 -999 -999 -999 -999
2007-06-11 05:59:05 51°23.781 2°44.095 -999 -999 -999 -999
2007-06-11 05:59:10 51°23.787 2°44.102 -999 -999 -999 -999
2007-06-11 05:59:15 51°23.792 2°44.109 -999 -999 -999 -999
2007-06-11 05:59:20 51°23.798 2°44.115 -999 -999 -999 -999
2007-06-11 05:59:25 51°23.803 2°44.121 -999 -999 -999 -999
2007-06-11 05:59:30 51°23.808 2°44.127 -999 -999 -999 -999
2007-06-11 05:59:35 51°23.812 2°44.133 -999 -999 -999 -999
2007-06-11 05:59:40 51°23.817 2°44.138 -999 -999 -999 -999
2007-06-11 05:59:45 51°23.821 2°44.144 -999 -999 -999 -999
2007-06-11 05:59:50 51°23.825 2°44.149 -999 -999 -999 -999
2007-06-11 05:59:55 51°23.829 2°44.155 -999 -999 -999 -999
2007-06-11 06:00:00 51°23.832 2°44.16 -999 -999 -999 -999
2007-06-11 06:00:05 51°23.835 2°44.166 -999 -999 -999 -999
2007-06-11 06:00:10 51°23.838 2°44.171 -999 -999 -999 -999
2007-06-11 06:00:15 51°23.841 2°44.177 -999 -999 -999 -999
2007-06-11 06:00:20 51°23.843 2°44.182 -999 -999 -999 -999
2007-06-11 06:00:25 51°23.845 2°44.187 -999 -999 -999 -999
2007-06-11 06:00:30 51°23.848 2°44.193 -999 -999 -999 -999
2007-06-11 06:00:35 51°23.85 2°44.198 -999 -999 -999 -999
2007-06-11 06:00:40 51°23.852 2°44.202 -999 -999 -999 -999
2007-06-11 06:00:45 51°23.855 2°44.207 -999 -999 -999 -999
2007-06-11 06:00:50 51°23.857 2°44.211 -999 -999 -999 -999
2007-06-11 06:00:55 51°23.859 2°44.215 -999 -999 -999 -999
2007-06-11 06:01:00 51°23.862 2°44.219 -999 -999 -999 -999
2007-06-11 06:01:05 51°23.865 2°44.222 -999 -999 -999 -999
2007-06-11 06:01:10 51°23.867 2°44.225 -999 -999 -999 -999
2007-06-11 06:01:15 51°23.87 2°44.228 -999 -999 -999 -999
2007-06-11 06:01:20 51°23.872 2°44.231 -999 -999 -999 -999
2007-06-11 06:01:25 51°23.875 2°44.234 -999 -999 -999 -999
2007-06-11 06:01:30 51°23.877 2°44.237 -999 -999 -999 -999
2007-06-11 06:01:35 51°23.88 2°44.24 -999 -999 -999 -999
2007-06-11 06:01:40 51°23.882 2°44.244 -999 -999 -999 -999
2007-06-11 06:01:45 51°23.884 2°44.248 -999 -999 -999 -999
2007-06-11 06:01:50 51°23.886 2°44.253 -999 -999 -999 -999
2007-06-11 06:01:55 51°23.888 2°44.257 -999 -999 -999 -999
2007-06-11 06:02:00 51°23.89 2°44.262 -999 -999 -999 -999
2007-06-11 06:02:05 51°23.892 2°44.266 -999 -999 -999 -999
2007-06-11 06:02:10 51°23.894 2°44.271 -999 -999 -999 -999
2007-06-11 06:02:15 51°23.896 2°44.275 -999 -999 -999 -999
2007-06-11 06:02:20 51°23.898 2°44.279 -999 -999 -999 -999
2007-06-11 06:02:25 51°23.9 2°44.282 -999 -999 -999 -999
2007-06-11 06:02:30 51°23.903 2°44.286 -999 -999 -999 -999
2007-06-11 06:02:35 51°23.906 2°44.289 -999 -999 -999 -999
2007-06-11 06:02:40 51°23.909 2°44.291 -999 -999 -999 -999
2007-06-11 06:02:45 51°23.912 2°44.294 -999 -999 -999 -999
2007-06-11 06:02:50 51°23.915 2°44.297 -999 -999 -999 -999
2007-06-11 06:02:55 51°23.918 2°44.3 -999 -999 -999 -999
2007-06-11 06:03:00 51°23.921 2°44.302 -999 -999 -999 -999
2007-06-11 06:03:05 51°23.924 2°44.306 -999 -999 -999 -999
2007-06-11 06:03:09 51°23.926 2°44.308 -999 -999 -999 -999
2007-06-11 06:03:15 51°23.929 2°44.313 -999 -999 -999 -999
2007-06-11 06:03:20 51°23.931 2°44.317 -999 -999 -999 -999
2007-06-11 06:03:25 51°23.933 2°44.32 -999 -999 -999 -999
2007-06-11 06:03:30 51°23.935 2°44.324 -999 -999 -999 -999
2007-06-11 06:03:35 51°23.936 2°44.327 -999 -999 -999 -999
2007-06-11 06:03:40 51°23.938 2°44.331 -999 -999 -999 -999
2007-06-11 06:03:45 51°23.939 2°44.334 -999 -999 -999 -999
2007-06-11 06:03:50 51°23.94 2°44.338 -999 -999 -999 -999
2007-06-11 06:03:55 51°23.942 2°44.341 -999 -999 -999 -999
2007-06-11 06:04:00 51°23.943 2°44.343 -999 -999 -999 -999
2007-06-11 06:04:05 51°23.945 2°44.346 -999 -999 -999 -999
2007-06-11 06:04:10 51°23.946 2°44.349 -999 -999 -999 -999
2007-06-11 06:04:15 51°23.948 2°44.351 -999 -999 -999 -999
2007-06-11 06:04:20 51°23.949 2°44.354 -999 -999 -999 -999
2007-06-11 06:04:25 51°23.951 2°44.355 -999 -999 -999 -999
2007-06-11 06:04:30 51°23.953 2°44.357 -999 -999 -999 -999
2007-06-11 06:04:35 51°23.955 2°44.359 -999 -999 -999 -999
2007-06-11 06:04:40 51°23.957 2°44.36 -999 -999 -999 -999
2007-06-11 06:04:45 51°23.959 2°44.362 -999 -999 -999 -999
2007-06-11 06:04:50 51°23.961 2°44.363 -999 -999 -999 -999
2007-06-11 06:04:55 51°23.962 2°44.364 -999 -999 -999 -999
2007-06-11 06:05:00 51°23.964 2°44.364 -999 -999 -999 -999
2007-06-11 06:05:05 51°23.966 2°44.364 -999 -999 -999 -999
2007-06-11 06:05:10 51°23.968 2°44.364 -999 -999 -999 -999
2007-06-11 06:05:15 51°23.97 2°44.364 -999 -999 -999 -999
2007-06-11 06:05:20 51°23.972 2°44.364 -999 -999 -999 -999
2007-06-11 06:05:25 51°23.974 2°44.364 -999 -999 -999 -999
2007-06-11 06:05:30 51°23.976 2°44.363 -999 -999 -999 -999
2007-06-11 06:05:35 51°23.978 2°44.362 -999 -999 -999 -999
2007-06-11 06:05:40 51°23.979 2°44.362 -999 -999 -999 -999
2007-06-11 06:05:45 51°23.981 2°44.361 -999 -999 -999 -999
2007-06-11 06:05:50 51°23.982 2°44.36 -999 -999 -999 -999
2007-06-11 06:05:55 51°23.984 2°44.36 -999 -999 -999 -999
2007-06-11 06:06:00 51°23.985 2°44.359 -999 -999 -999 -999
2007-06-11 06:06:05 51°23.987 2°44.358 -999 -999 -999 -999
2007-06-11 06:06:10 51°23.988 2°44.357 -999 -999 -999 -999
2007-06-11 06:06:15 51°23.99 2°44.356 -999 -999 -999 -999
2007-06-11 06:06:20 51°23.991 2°44.355 -999 -999 -999 -999
2007-06-11 06:06:25 51°23.993 2°44.354 -999 -999 -999 -999
2007-06-11 06:06:30 51°23.994 2°44.353 -999 -999 -999 -999
2007-06-11 06:06:35 51°23.995 2°44.352 -999 -999 -999 -999
2007-06-11 06:06:40 51°23.996 2°44.351 -999 -999 -999 -999
2007-06-11 06:06:45 51°23.998 2°44.35 -999 -999 -999 -999
2007-06-11 06:06:50 51°23.999 2°44.349 -999 -999 -999 -999
2007-06-11 06:06:55 51°24 2°44.348 -999 -999 -999 -999
2007-06-11 06:07:00 51°24.001 2°44.347 -999 -999 -999 -999
2007-06-11 06:07:05 51°24.002 2°44.346 -999 -999 -999 -999
2007-06-11 06:07:10 51°24.003 2°44.344 -999 -999 -999 -999
2007-06-11 06:07:15 51°24.005 2°44.343 -999 -999 -999 -999
2007-06-11 06:07:20 51°24.006 2°44.342 -999 -999 -999 -999
2007-06-11 06:07:25 51°24.006 2°44.341 -999 -999 -999 -999
2007-06-11 06:07:30 51°24.007 2°44.34 -999 -999 -999 -999
2007-06-11 06:07:35 51°24.008 2°44.339 -999 -999 -999 -999
2007-06-11 06:07:40 51°24.009 2°44.338 -999 -999 -999 -999
2007-06-11 06:07:45 51°24.01 2°44.337 -999 -999 -999 -999
2007-06-11 06:07:50 51°24.01 2°44.336 -999 -999 -999 -999
2007-06-11 06:07:55 51°24.011 2°44.335 -999 -999 -999 -999
2007-06-11 06:08:00 51°24.012 2°44.334 -999 -999 -999 -999
2007-06-11 06:08:05 51°24.013 2°44.333 -999 -999 -999 -999
2007-06-11 06:08:10 51°24.013 2°44.332 -999 -999 -999 -999
2007-06-11 06:08:15 51°24.014 2°44.331 -999 -999 -999 -999
2007-06-11 06:08:20 51°24.015 2°44.33 -999 -999 -999 -999
2007-06-11 06:08:25 51°24.016 2°44.329 -999 -999 -999 -999
2007-06-11 06:08:30 51°24.016 2°44.328 -999 -999 -999 -999
2007-06-11 06:08:35 51°24.017 2°44.327 -999 -999 -999 -999
2007-06-11 06:08:40 51°24.018 2°44.326 -999 -999 -999 -999
2007-06-11 06:08:45 51°24.019 2°44.325 -999 -999 -999 -999
2007-06-11 06:08:50 51°24.02 2°44.325 -999 -999 -999 -999
2007-06-11 06:08:55 51°24.021 2°44.323 -999 -999 -999 -999
2007-06-11 06:09:00 51°24.022 2°44.322 -999 -999 -999 -999
2007-06-11 06:09:05 51°24.023 2°44.322 -999 -999 -999 -999
2007-06-11 06:09:09 51°24.024 2°44.321 -999 -999 -999 -999
2007-06-11 06:09:15 51°24.026 2°44.319 -999 -999 -999 -999
2007-06-11 06:09:20 51°24.027 2°44.318 -999 -999 -999 -999
2007-06-11 06:09:25 51°24.029 2°44.317 -999 -999 -999 -999
2007-06-11 06:09:30 51°24.03 2°44.315 -999 -999 -999 -999
2007-06-11 06:09:35 51°24.032 2°44.313 -999 -999 -999 -999
2007-06-11 06:09:40 51°24.034 2°44.311 -999 -999 -999 -999
2007-06-11 06:09:45 51°24.035 2°44.309 -999 -999 -999 -999
2007-06-11 06:09:50 51°24.037 2°44.307 -999 -999 -999 -999
2007-06-11 06:09:55 51°24.039 2°44.304 -999 -999 -999 -999
2007-06-11 06:10:00 51°24.04 2°44.301 -999 -999 -999 -999
2007-06-11 06:10:05 51°24.042 2°44.299 -999 -999 -999 -999
2007-06-11 06:10:10 51°24.043 2°44.296 -999 -999 -999 -999
2007-06-11 06:10:15 51°24.045 2°44.292 -999 -999 -999 -999